This is the latest recevied weather packets stored in our database for station/object SV2ASS-2. If no packets are shown the sender has not sent any weather packets the latest 10 day(s).
| Time | Temp. | Humidity | Pressure | Rain* | Wind** | Luminosity | Snow |
|---|---|---|---|---|---|---|---|
| 1777718564 | 15° C | 38% | 1023.2 hPa | - | - | - | - |
| 1777717664 | 14.44° C | 38% | 1023.3 hPa | - | - | - | - |
| 1777716764 | 13.89° C | 38% | 1023.4 hPa | - | - | - | - |
| 1777715863 | 14.44° C | 40% | 1023.5 hPa | - | - | - | - |
| 1777714963 | 13.89° C | 39% | 1023.6 hPa | - | - | - | - |
| 1777714063 | 12.78° C | 36% | 1023.8 hPa | - | - | - | - |
| 1777713163 | 13.89° C | 38% | 1023.9 hPa | - | - | - | - |
| 1777712267 | 13.33° C | 40% | 1024 hPa | - | - | - | - |
| 1777711367 | 13.33° C | 42% | 1024.1 hPa | - | - | - | - |
| 1777710467 | 12.22° C | 37% | 1024.3 hPa | - | - | - | - |
| 1777709567 | 11.67° C | 42% | 1024.4 hPa | - | - | - | - |
| 1777708666 | 11.11° C | 44% | 1024.5 hPa | - | - | - | - |
| 1777707766 | 11.11° C | 43% | 1024.5 hPa | - | - | - | - |
| 1777706866 | 10° C | 49% | 1024.7 hPa | - | - | - | - |
| 1777705966 | 10° C | 52% | 1024.9 hPa | - | - | - | - |
| 1777705066 | 10° C | 51% | 1024.9 hPa | - | - | - | - |
| 1777704166 | 9.44° C | 54% | 1025 hPa | - | - | - | - |
| 1777703266 | 9.44° C | 53% | 1025 hPa | - | - | - | - |
| 1777702366 | 8.89° C | 55% | 1025 hPa | - | - | - | - |
| 1777701465 | 8.33° C | 55% | 1024.8 hPa | - | - | - | - |
| 1777700566 | 8.33° C | 65% | 1024.7 hPa | - | - | - | - |
| 1777699665 | 7.78° C | 61% | 1024.6 hPa | - | - | - | - |
| 1777698765 | 6.67° C | 59% | 1024.6 hPa | - | - | - | - |
| 1777697865 | 6.11° C | 60% | 1024.8 hPa | - | - | - | - |
| 1777696965 | 6.11° C | 58% | 1024.9 hPa | - | - | - | - |
* Rain since midnight (hover to see other rain measurements)
** Current wind speed in m/s (hover to see current wind gust speed)